M I D A S
Marine Information and Data Acquisition System
Tripno 383 of the Zeeleeuw from 2002-07-01 08:04:20 to 2002-07-01 15:46:00
Back to CruiseResearch ActivitiesStationsMapUnderway DataData graphs

EquipmentUnitsComments
TimeDGPSUTC
LatitudeDGPSDM.mWGS84
LongitudeDGPSDM.mWGS84
SpeedMeteo Stationm/sRelative wind speed
DirectionMeteo StationdegRelative wind direction
TemperatureMeteo Stationdeg CelciusAir temperature
PressureMeteo StationPaAtmospheric pressure
HumidityMeteo Station%Relative humidity
Missing or incorrect values are displayed as -999
Metereological data collected by the RV Zeeleeuw from 2002-07-01 08:04:20 to 2002-07-01 15:46:00
                                                                                    Next 1000 lines
Time Latitude Longitude Speed Direction Temperature Pressure Humidity
2002-07-01 08:04:26 51°13.662 2°55.847 4.4 300 12.9 100510 91
2002-07-01 08:04:31 51°13.666 2°55.838 3.2 336 12.9 100510 91
2002-07-01 08:04:37 51°13.672 2°55.827 2.9 322 12.9 100510 91
2002-07-01 08:04:42 51°13.677 2°55.817 3.4 337 12.9 100510 91
2002-07-01 08:04:46 51°13.681 2°55.81 2.3 349 12.9 100510 91
2002-07-01 08:04:51 51°13.686 2°55.8 2 302 12.9 100510 91
2002-07-01 08:04:56 51°13.691 2°55.791 2.1 322 12.9 100510 91
2002-07-01 08:05:01 51°13.696 2°55.781 4.2 318 12.9 100510 91
2002-07-01 08:05:06 51°13.701 2°55.772 2 345 12.9 100510 91
2002-07-01 08:05:11 51°13.707 2°55.763 2.3 341 12.9 100510 91
2002-07-01 08:05:15 51°13.711 2°55.755 2.4 301 12.9 100510 91
2002-07-01 08:05:21 51°13.718 2°55.745 2.2 332 12.9 100510 91
2002-07-01 08:05:26 51°13.723 2°55.736 0.5 334 12.9 100510 91
2002-07-01 08:05:31 51°13.729 2°55.728 0.5 345 12.9 100510 91
2002-07-01 08:05:37 51°13.737 2°55.719 0.6 334 12.9 100510 91
2002-07-01 08:05:41 51°13.742 2°55.713 2 298 12.9 100510 91
2002-07-01 08:05:46 51°13.748 2°55.705 2 316 12.9 100510 91
2002-07-01 08:05:51 51°13.755 2°55.698 2.1 320 12.9 100510 91
2002-07-01 08:05:57 51°13.762 2°55.69 2.5 351 12.9 100510 91
2002-07-01 08:06:02 51°13.769 2°55.684 2.8 26 12.9 100510 91
2002-07-01 08:06:06 51°13.774 2°55.679 3.6 301 12.9 100510 91
2002-07-01 08:06:11 51°13.781 2°55.673 3.8 293 12.9 100500 91
2002-07-01 08:06:16 51°13.788 2°55.667 2.8 295 12.9 100500 91
2002-07-01 08:06:21 51°13.796 2°55.661 1.8 356 12.9 100510 91
2002-07-01 08:06:26 51°13.803 2°55.655 2.3 340 12.9 100510 91
2002-07-01 08:06:31 51°13.809 2°55.65 5.1 357 12.9 100510 91
2002-07-01 08:06:36 51°13.817 2°55.645 4 10 12.9 100510 91
2002-07-01 08:06:41 51°13.824 2°55.64 1.8 352 12.9 100500 91
2002-07-01 08:06:46 51°13.832 2°55.634 1.7 344 12.9 100500 91
2002-07-01 08:06:51 51°13.839 2°55.629 4.5 349 12.9 100510 91
2002-07-01 08:06:57 51°13.848 2°55.623 2.4 343 12.9 100510 91
2002-07-01 08:07:01 51°13.854 2°55.619 2.5 4 12.9 100500 91
2002-07-01 08:07:06 51°13.861 2°55.614 2.1 331 12.9 100500 91
2002-07-01 08:07:11 51°13.869 2°55.608 3.6 13 12.9 100510 91
2002-07-01 08:07:16 51°13.876 2°55.603 2.7 344 12.9 100510 91
2002-07-01 08:07:21 51°13.883 2°55.597 2.3 333 12.9 100510 91
2002-07-01 08:07:26 51°13.891 2°55.592 3.2 342 12.9 100510 91
2002-07-01 08:07:31 51°13.898 2°55.586 2.5 318 12.9 100500 91
2002-07-01 08:07:36 51°13.905 2°55.58 1.6 356 12.9 100500 91
2002-07-01 08:07:41 51°13.913 2°55.575 1.5 2 12.9 100500 91
2002-07-01 08:07:46 51°13.92 2°55.569 3.3 302 12.9 100500 91
2002-07-01 08:07:51 51°13.928 2°55.563 2.2 315 12.9 100500 91
2002-07-01 08:07:56 51°13.935 2°55.558 3.8 282 12.9 100500 91
2002-07-01 08:08:01 51°13.943 2°55.552 5 296 12.9 100510 91
2002-07-01 08:08:07 51°13.953 2°55.545 3.9 287 12.9 100510 91
2002-07-01 08:08:11 51°13.959 2°55.541 4.5 303 12.9 100500 91
2002-07-01 08:08:17 51°13.969 2°55.533 2.4 3 12.9 100500 91
2002-07-01 08:08:21 51°13.975 2°55.529 3.8 304 12.9 100500 91
2002-07-01 08:08:26 51°13.983 2°55.523 3.5 318 12.9 100500 91
2002-07-01 08:08:31 51°13.992 2°55.516 3.1 308 12.9 100500 91
2002-07-01 08:08:36 51°14 2°55.51 3.8 29 12.9 100500 91
2002-07-01 08:08:42 51°14.01 2°55.503 3.9 16 12.9 100510 91
2002-07-01 08:08:46 51°14.017 2°55.498 3.6 355 12.9 100510 91
2002-07-01 08:08:51 51°14.025 2°55.491 2 329 12.9 100500 91
2002-07-01 08:08:56 51°14.034 2°55.485 4.3 286 12.9 100500 91
2002-07-01 08:09:01 51°14.042 2°55.479 4.2 353 12.9 100510 91
2002-07-01 08:09:06 51°14.051 2°55.472 5.1 7 12.9 100510 91
2002-07-01 08:09:11 51°14.059 2°55.466 3 353 12.9 100510 91
2002-07-01 08:09:16 51°14.068 2°55.459 1.3 316 12.9 100510 91
2002-07-01 08:09:22 51°14.078 2°55.452 2.8 297 12.9 100500 91
2002-07-01 08:09:26 51°14.085 2°55.446 5.3 285 12.9 100500 91
2002-07-01 08:09:31 51°14.094 2°55.439 4.6 305 12.9 100510 90
2002-07-01 08:09:36 51°14.102 2°55.432 4.6 293 12.9 100510 90
2002-07-01 08:09:41 51°14.111 2°55.425 5.5 280 12.9 100500 90
2002-07-01 08:09:46 51°14.119 2°55.418 3.8 275 12.9 100500 90
2002-07-01 08:09:51 51°14.128 2°55.41 2.6 284 12.9 100500 91
2002-07-01 08:09:56 51°14.136 2°55.403 2.1 317 12.9 100500 91
2002-07-01 08:10:02 51°14.146 2°55.394 0.8 322 12.9 100500 91
2002-07-01 08:10:06 51°14.153 2°55.387 2.2 355 12.9 100500 91
2002-07-01 08:10:11 51°14.161 2°55.379 1.7 340 12.9 100500 91
2002-07-01 08:10:17 51°14.171 2°55.369 3.7 306 12.9 100500 91
2002-07-01 08:10:21 51°14.178 2°55.363 2.7 315 12.9 100500 91
2002-07-01 08:10:26 51°14.186 2°55.354 1.4 287 12.9 100500 91
2002-07-01 08:10:32 51°14.196 2°55.344 2.4 286 12.9 100500 91
2002-07-01 08:10:38 51°14.205 2°55.332 3.4 295 12.9 100500 91
2002-07-01 08:10:42 51°14.212 2°55.325 3.5 247 12.9 100500 91
2002-07-01 08:10:46 51°14.218 2°55.317 4 273 12.9 100500 91
2002-07-01 08:10:52 51°14.228 2°55.306 4.5 278 12.9 100500 91
2002-07-01 08:10:56 51°14.234 2°55.297 4.5 283 12.9 100500 91
2002-07-01 08:11:03 51°14.244 2°55.283 5.2 282 12.9 100500 91
2002-07-01 08:11:06 51°14.249 2°55.276 9.9 302 12.9 100500 91
2002-07-01 08:11:12 51°14.257 2°55.264 7.8 315 12.9 100490 91
2002-07-01 08:11:17 51°14.264 2°55.254 2.6 340 12.9 100490 91
2002-07-01 08:11:21 51°14.27 2°55.245 8.9 304 12.9 100500 91
2002-07-01 08:11:26 51°14.277 2°55.234 5.8 289 12.9 100500 91
2002-07-01 08:11:31 51°14.283 2°55.223 5.2 292 12.9 100500 91
2002-07-01 08:11:36 51°14.29 2°55.212 6.9 300 12.9 100500 91
2002-07-01 08:11:41 51°14.296 2°55.2 5.1 296 12.9 100500 91
2002-07-01 08:11:46 51°14.303 2°55.189 5.3 299 12.9 100500 91
2002-07-01 08:11:51 51°14.309 2°55.177 6.3 292 12.9 100500 91
2002-07-01 08:11:55 51°14.314 2°55.167 6.4 291 12.9 100500 91
2002-07-01 08:12:02 51°14.323 2°55.151 6.6 290 13 100490 91
2002-07-01 08:12:06 51°14.328 2°55.142 6.8 285 13 100490 91
2002-07-01 08:12:11 51°14.335 2°55.13 5.8 298 12.9 100500 90
2002-07-01 08:12:16 51°14.341 2°55.118 6 279 12.9 100500 90
2002-07-01 08:12:21 51°14.347 2°55.106 5.8 300 13 100490 91
2002-07-01 08:12:26 51°14.353 2°55.094 7.8 292 13 100490 91
2002-07-01 08:12:31 51°14.359 2°55.082 7.7 276 13 100500 91
2002-07-01 08:12:36 51°14.365 2°55.07 9.4 298 13 100500 91
2002-07-01 08:12:42 51°14.373 2°55.056 10.1 299 13 100500 91
2002-07-01 08:12:46 51°14.378 2°55.047 9.5 299 13 100500 91
2002-07-01 08:12:51 51°14.384 2°55.035 9.4 303 13 100490 91
2002-07-01 08:12:56 51°14.39 2°55.022 5.4 308 13 100490 91
2002-07-01 08:13:02 51°14.397 2°55.008 4.4 329 13 100490 91
2002-07-01 08:13:06 51°14.401 2°54.998 6.6 304 13 100490 91
2002-07-01 08:13:11 51°14.407 2°54.986 7.1 308 13 100490 91
2002-07-01 08:13:16 51°14.412 2°54.973 9.5 301 13 100490 91
2002-07-01 08:13:21 51°14.418 2°54.96 9.6 308 13 100490 91
2002-07-01 08:13:26 51°14.424 2°54.946 8.8 301 13 100490 91
2002-07-01 08:13:31 51°14.43 2°54.931 8.1 306 13 100490 91
2002-07-01 08:13:37 51°14.438 2°54.912 8.2 299 13 100490 91
2002-07-01 08:13:41 51°14.443 2°54.899 8.9 316 13 100490 91
2002-07-01 08:13:46 51°14.45 2°54.882 8.9 299 13 100490 91
2002-07-01 08:13:51 51°14.457 2°54.864 9.8 293 13 100470 91
2002-07-01 08:13:56 51°14.463 2°54.846 8.9 301 13 100470 91
2002-07-01 08:14:02 51°14.472 2°54.825 8.8 292 13 100480 91
2002-07-01 08:14:06 51°14.478 2°54.81 10.1 291 13 100480 91
2002-07-01 08:14:11 51°14.485 2°54.792 11 290 13 100490 90
2002-07-01 08:14:16 51°14.492 2°54.773 11.6 299 13 100490 90
2002-07-01 08:14:21 51°14.5 2°54.755 10.3 300 13 100470 90
2002-07-01 08:14:26 51°14.509 2°54.737 8.5 286 13 100470 90
2002-07-01 08:14:32 51°14.52 2°54.715 7 309 13.1 100480 91
2002-07-01 08:14:36 51°14.529 2°54.7 8.8 302 13.1 100480 91
2002-07-01 08:14:41 51°14.539 2°54.681 7.6 307 13.1 100470 91
2002-07-01 08:14:46 51°14.55 2°54.662 10.3 295 13.1 100470 91
2002-07-01 08:14:51 51°14.561 2°54.642 10.4 298 13.1 100470 91
2002-07-01 08:14:56 51°14.572 2°54.622 11.5 295 13.1 100470 91
2002-07-01 08:15:01 51°14.583 2°54.601 10.8 304 13.1 100480 91
2002-07-01 08:15:07 51°14.595 2°54.576 11.3 292 13.1 100480 91
2002-07-01 08:15:11 51°14.604 2°54.559 12.1 291 13.1 100480 91
2002-07-01 08:15:16 51°14.615 2°54.537 10 301 13.1 100480 91
2002-07-01 08:15:21 51°14.627 2°54.517 9.5 300 13.1 100470 91
2002-07-01 08:15:26 51°14.639 2°54.496 9.8 294 13.1 100470 91
2002-07-01 08:15:31 51°14.65 2°54.475 11.2 302 13.1 100470 91
2002-07-01 08:15:37 51°14.663 2°54.449 9.5 306 13.1 100470 91
2002-07-01 08:15:41 51°14.672 2°54.431 10.8 304 13.1 100470 91
2002-07-01 08:15:46 51°14.682 2°54.408 12.9 302 13.1 100470 91
2002-07-01 08:15:51 51°14.693 2°54.386 12.5 292 13.1 100470 91
2002-07-01 08:15:56 51°14.702 2°54.362 12.1 298 13.1 100470 91
2002-07-01 08:16:01 51°14.712 2°54.339 10.3 293 13.1 100480 91
2002-07-01 08:16:06 51°14.721 2°54.315 10.1 288 13.1 100480 91
2002-07-01 08:16:11 51°14.73 2°54.291 10.8 287 13.1 100470 91
2002-07-01 08:16:16 51°14.739 2°54.266 12.4 290 13.1 100470 91
2002-07-01 08:16:21 51°14.747 2°54.242 11.6 297 13.1 100460 91
2002-07-01 08:16:26 51°14.755 2°54.217 12 284 13.1 100460 91
2002-07-01 08:16:31 51°14.763 2°54.191 11.7 291 13.2 100460 91
2002-07-01 08:16:36 51°14.77 2°54.166 13.2 292 13.2 100460 91
2002-07-01 08:16:41 51°14.777 2°54.14 13.1 294 13.2 100460 91
2002-07-01 08:16:46 51°14.784 2°54.115 13 292 13.2 100460 91
2002-07-01 08:16:51 51°14.791 2°54.089 14.5 294 13.2 100450 91
2002-07-01 08:16:57 51°14.799 2°54.058 12.7 290 13.2 100450 91
2002-07-01 08:17:01 51°14.804 2°54.037 15.1 285 13.2 100460 91
2002-07-01 08:17:06 51°14.81 2°54.012 15.5 288 13.2 100460 91
2002-07-01 08:17:11 51°14.817 2°53.986 14.3 289 13.2 100460 91
2002-07-01 08:17:16 51°14.823 2°53.96 13.4 297 13.2 100460 91
2002-07-01 08:17:21 51°14.829 2°53.935 14.3 295 13.2 100460 91
2002-07-01 08:17:26 51°14.836 2°53.91 13.4 293 13.2 100460 91
2002-07-01 08:17:31 51°14.843 2°53.884 12.7 290 13.2 100450 91
2002-07-01 08:17:36 51°14.849 2°53.859 12 291 13.2 100450 91
2002-07-01 08:17:41 51°14.856 2°53.833 12.8 290 13.3 100460 91
2002-07-01 08:17:46 51°14.862 2°53.807 11.7 284 13.3 100460 91
2002-07-01 08:17:51 51°14.868 2°53.782 13.7 283 13.3 100450 91
2002-07-01 08:17:56 51°14.875 2°53.756 13.2 289 13.3 100450 91
2002-07-01 08:18:02 51°14.883 2°53.726 13.5 291 13.3 100450 91
2002-07-01 08:18:06 51°14.888 2°53.705 14.2 284 13.3 100450 91
2002-07-01 08:18:11 51°14.895 2°53.68 15.2 289 13.3 100450 91
2002-07-01 08:18:16 51°14.901 2°53.654 14.1 291 13.3 100450 91
2002-07-01 08:18:22 51°14.909 2°53.623 13.1 289 13.3 100450 91
2002-07-01 08:18:26 51°14.914 2°53.602 13.9 290 13.3 100450 91
2002-07-01 08:18:31 51°14.92 2°53.576 14.1 292 13.3 100460 91
2002-07-01 08:18:37 51°14.928 2°53.545 13.6 294 13.3 100460 91
2002-07-01 08:18:41 51°14.934 2°53.524 13.3 292 13.3 100440 91
2002-07-01 08:18:46 51°14.941 2°53.498 13.7 293 13.3 100440 91
2002-07-01 08:18:51 51°14.947 2°53.472 13.7 287 13.3 100450 90
2002-07-01 08:18:56 51°14.955 2°53.445 14.1 297 13.3 100450 90
2002-07-01 08:19:02 51°14.963 2°53.414 12.6 292 13.3 100450 91
2002-07-01 08:19:06 51°14.968 2°53.392 12 289 13.3 100450 91
2002-07-01 08:19:11 51°14.976 2°53.365 14.3 282 13.3 100450 91
2002-07-01 08:19:16 51°14.983 2°53.339 14.4 290 13.3 100450 91
2002-07-01 08:19:21 51°14.99 2°53.312 13.8 292 13.4 100450 91
2002-07-01 08:19:26 51°14.997 2°53.285 13.5 292 13.4 100450 91
2002-07-01 08:19:31 51°15.004 2°53.258 11.8 284 13.4 100450 91
2002-07-01 08:19:36 51°15.011 2°53.231 13.4 282 13.4 100450 91
2002-07-01 08:19:41 51°15.018 2°53.205 14.9 292 13.4 100450 91
2002-07-01 08:19:47 51°15.026 2°53.172 13.2 287 13.4 100450 91
2002-07-01 08:19:51 51°15.032 2°53.151 14.1 295 13.4 100460 91
2002-07-01 08:19:54 51°15.036 2°53.135 15.9 287 13.4 100460 91
2002-07-01 08:20:01 51°15.046 2°53.097 15.1 286 13.4 100460 91
2002-07-01 08:20:06 51°15.053 2°53.07 13.4 291 13.4 100460 91
2002-07-01 08:20:11 51°15.06 2°53.043 14.4 286 13.4 100450 91
2002-07-01 08:20:16 51°15.068 2°53.016 14.5 289 13.4 100450 91
2002-07-01 08:20:21 51°15.074 2°52.989 13.4 288 13.4 100450 91
2002-07-01 08:20:26 51°15.082 2°52.962 15.1 286 13.4 100450 91
2002-07-01 08:20:31 51°15.089 2°52.935 14.2 291 13.4 100450 91
2002-07-01 08:20:36 51°15.096 2°52.908 13.7 289 13.4 100450 91
2002-07-01 08:20:41 51°15.103 2°52.882 14.2 289 13.5 100460 91
2002-07-01 08:20:46 51°15.11 2°52.855 14.4 286 13.5 100460 91
2002-07-01 08:20:51 51°15.118 2°52.828 13.2 288 13.5 100450 91
2002-07-01 08:20:56 51°15.125 2°52.801 14.8 285 13.5 100450 91
2002-07-01 08:21:01 51°15.132 2°52.774 14.2 295 13.5 100450 91
2002-07-01 08:21:06 51°15.139 2°52.746 15.5 289 13.5 100450 91
2002-07-01 08:21:11 51°15.146 2°52.72 15.7 285 13.5 100450 91
2002-07-01 08:21:16 51°15.154 2°52.693 14.2 293 13.5 100450 91
2002-07-01 08:21:21 51°15.161 2°52.667 14.4 289 13.5 100450 91
2002-07-01 08:21:26 51°15.168 2°52.64 13.2 293 13.5 100450 91
2002-07-01 08:21:32 51°15.177 2°52.608 15.8 287 13.5 100450 91
2002-07-01 08:21:36 51°15.183 2°52.586 15 288 13.5 100450 91
2002-07-01 08:21:41 51°15.19 2°52.559 14.6 289 13.5 100450 90
2002-07-01 08:21:46 51°15.198 2°52.532 16.4 288 13.5 100450 90
2002-07-01 08:21:51 51°15.205 2°52.505 15.3 290 13.5 100440 90
2002-07-01 08:21:56 51°15.213 2°52.478 15.3 291 13.5 100440 90
2002-07-01 08:22:01 51°15.22 2°52.45 15.9 289 13.5 100440 90
2002-07-01 08:22:06 51°15.226 2°52.424 15.2 291 13.5 100440 90
2002-07-01 08:22:11 51°15.233 2°52.397 15.2 297 13.5 100440 90
2002-07-01 08:22:16 51°15.24 2°52.37 14.4 292 13.5 100440 90
2002-07-01 08:22:21 51°15.247 2°52.342 13.4 282 13.4 100440 90
2002-07-01 08:22:26 51°15.254 2°52.315 14.9 283 13.4 100440 90
2002-07-01 08:22:31 51°15.261 2°52.288 13.8 288 13.5 100440 90
2002-07-01 08:22:36 51°15.267 2°52.261 16.3 284 13.5 100440 90
2002-07-01 08:22:42 51°15.275 2°52.229 14.4 294 13.5 100440 90
2002-07-01 08:22:47 51°15.282 2°52.202 15.5 287 13.5 100440 90
2002-07-01 08:22:51 51°15.287 2°52.18 13.8 290 13.5 100450 90
2002-07-01 08:22:56 51°15.294 2°52.152 14.8 293 13.5 100450 90
2002-07-01 08:23:01 51°15.3 2°52.125 15.7 292 13.5 100440 90
2002-07-01 08:23:06 51°15.307 2°52.097 15.5 288 13.5 100440 90
2002-07-01 08:23:11 51°15.313 2°52.07 14.5 284 13.5 100440 90
2002-07-01 08:23:16 51°15.32 2°52.043 15.1 284 13.5 100440 90
2002-07-01 08:23:21 51°15.327 2°52.015 15.4 284 13.6 100440 90
2002-07-01 08:23:26 51°15.333 2°51.988 15.8 292 13.6 100440 90
2002-07-01 08:23:31 51°15.339 2°51.961 13.7 290 13.5 100420 90
2002-07-01 08:23:36 51°15.345 2°51.933 15.5 289 13.5 100420 90
2002-07-01 08:23:42 51°15.351 2°51.899 15.5 284 13.5 100430 90
2002-07-01 08:23:46 51°15.354 2°51.876 14.3 281 13.5 100430 90
2002-07-01 08:23:51 51°15.358 2°51.849 17.1 281 13.5 100430 90
2002-07-01 08:23:56 51°15.359 2°51.82 16.8 266 13.5 100430 90
2002-07-01 08:24:01 51°15.36 2°51.791 17.4 266 13.5 100430 90
2002-07-01 08:24:06 51°15.359 2°51.764 18.7 273 13.5 100430 90
2002-07-01 08:24:11 51°15.357 2°51.735 18.1 270 13.5 100430 90
2002-07-01 08:24:16 51°15.354 2°51.707 16.8 267 13.5 100430 90
2002-07-01 08:24:21 51°15.35 2°51.679 17.5 266 13.6 100410 90
2002-07-01 08:24:26 51°15.347 2°51.651 17.2 261 13.6 100410 90
2002-07-01 08:24:31 51°15.343 2°51.624 18.6 261 13.5 100410 90
2002-07-01 08:24:37 51°15.338 2°51.591 19.1 262 13.5 100410 90
2002-07-01 08:24:41 51°15.334 2°51.569 19.8 264 13.6 100420 90
2002-07-01 08:24:46 51°15.33 2°51.541 21.3 268 13.6 100420 90
2002-07-01 08:24:51 51°15.326 2°51.513 21.8 266 13.6 100430 90
2002-07-01 08:24:57 51°15.321 2°51.48 18.5 268 13.6 100430 90
2002-07-01 08:25:01 51°15.318 2°51.458 17.2 265 13.6 100430 90
2002-07-01 08:25:06 51°15.314 2°51.43 18.8 262 13.6 100430 90
2002-07-01 08:25:11 51°15.311 2°51.402 19.1 263 13.5 100420 90
2002-07-01 08:25:16 51°15.308 2°51.375 20.6 268 13.5 100420 90
2002-07-01 08:25:21 51°15.304 2°51.347 19.9 270 13.5 100410 89
2002-07-01 08:25:26 51°15.302 2°51.319 18.7 270 13.5 100410 89
2002-07-01 08:25:31 51°15.299 2°51.291 17.9 270 13.5 100410 89
2002-07-01 08:25:36 51°15.297 2°51.262 17.5 268 13.5 100410 89
2002-07-01 08:25:42 51°15.294 2°51.228 17.7 266 13.5 100410 89
2002-07-01 08:25:46 51°15.293 2°51.205 17 271 13.5 100410 89
2002-07-01 08:25:51 51°15.291 2°51.176 17.8 269 13.5 100390 89
2002-07-01 08:25:57 51°15.288 2°51.142 20.6 270 13.5 100390 89
2002-07-01 08:26:01 51°15.287 2°51.119 20.4 272 13.6 100410 89
2002-07-01 08:26:06 51°15.285 2°51.09 17.6 268 13.6 100410 89
2002-07-01 08:26:11 51°15.282 2°51.062 17.1 262 13.6 100400 89
2002-07-01 08:26:17 51°15.28 2°51.027 19.5 262 13.6 100400 89
2002-07-01 08:26:21 51°15.278 2°51.005 22.5 268 13.6 100410 89
2002-07-01 08:26:26 51°15.276 2°50.976 20.6 272 13.6 100410 89
2002-07-01 08:26:32 51°15.275 2°50.942 20.1 272 13.6 100410 89
2002-07-01 08:26:36 51°15.273 2°50.919 20.5 272 13.6 100410 89
2002-07-01 08:26:42 51°15.271 2°50.885 19.9 269 13.6 100420 89
2002-07-01 08:26:47 51°15.269 2°50.857 21.6 273 13.6 100420 89
2002-07-01 08:26:51 51°15.267 2°50.834 20.1 274 13.6 100400 89
2002-07-01 08:26:56 51°15.265 2°50.806 19.6 269 13.6 100400 89
2002-07-01 08:27:02 51°15.262 2°50.772 16.3 271 13.6 100390 89
2002-07-01 08:27:06 51°15.26 2°50.75 18 267 13.6 100390 89
2002-07-01 08:27:12 51°15.256 2°50.717 16.7 269 13.6 100390 89
2002-07-01 08:27:16 51°15.253 2°50.694 18.8 272 13.6 100390 89
2002-07-01 08:27:21 51°15.25 2°50.666 18.6 266 13.6 100400 89
2002-07-01 08:27:27 51°15.247 2°50.633 18.4 263 13.6 100400 89
2002-07-01 08:27:31 51°15.244 2°50.61 20.4 263 13.6 100410 89
2002-07-01 08:27:37 51°15.24 2°50.576 19.2 266 13.6 100410 89
2002-07-01 08:27:42 51°15.237 2°50.547 20.1 268 13.6 100410 89
2002-07-01 08:27:47 51°15.234 2°50.52 20.8 267 13.6 100410 89
2002-07-01 08:27:51 51°15.231 2°50.498 19 276 13.6 100410 89
2002-07-01 08:27:56 51°15.228 2°50.471 18.6 268 13.6 100410 89
2002-07-01 08:28:01 51°15.225 2°50.444 18.5 275 13.6 100390 89
2002-07-01 08:28:06 51°15.222 2°50.416 18.4 270 13.6 100390 89
2002-07-01 08:28:11 51°15.219 2°50.388 16.6 270 13.6 100420 89
2002-07-01 08:28:16 51°15.216 2°50.36 18.3 268 13.6 100420 89
2002-07-01 08:28:22 51°15.213 2°50.327 19 268 13.7 100390 89
2002-07-01 08:28:26 51°15.21 2°50.305 20.6 270 13.7 100390 89
2002-07-01 08:28:31 51°15.207 2°50.277 19.7 262 13.7 100390 89
2002-07-01 08:28:38 51°15.202 2°50.239 21.6 264 13.7 100390 89
2002-07-01 08:28:41 51°15.2 2°50.223 20.1 269 13.7 100380 89
2002-07-01 08:28:46 51°15.197 2°50.195 21.2 268 13.7 100380 89
2002-07-01 08:28:51 51°15.194 2°50.168 21.5 272 13.7 100400 88
2002-07-01 08:28:57 51°15.19 2°50.134 21 273 13.7 100400 88
2002-07-01 08:29:01 51°15.187 2°50.112 20.9 270 13.7 100390 88
2002-07-01 08:29:07 51°15.183 2°50.079 18.3 270 13.7 100390 88
2002-07-01 08:29:11 51°15.18 2°50.056 17.6 261 13.7 100370 88
2002-07-01 08:29:16 51°15.177 2°50.028 20.2 265 13.7 100370 88
2002-07-01 08:29:21 51°15.173 2°50 22 270 13.6 100380 88
2002-07-01 08:29:26 51°15.169 2°49.972 21.6 267 13.6 100380 88
2002-07-01 08:29:31 51°15.166 2°49.944 21.4 268 13.7 100390 88
2002-07-01 08:29:36 51°15.162 2°49.916 21.7 264 13.7 100390 88
2002-07-01 08:29:41 51°15.159 2°49.888 20.7 268 13.7 100390 88
2002-07-01 08:29:47 51°15.155 2°49.854 22 272 13.7 100390 88
2002-07-01 08:29:51 51°15.151 2°49.832 21.1 271 13.7 100380 88
2002-07-01 08:29:56 51°15.148 2°49.804 18.5 278 13.7 100380 88
2002-07-01 08:30:01 51°15.144 2°49.776 18.2 273 13.6 100380 88
2002-07-01 08:30:06 51°15.141 2°49.748 20.9 273 13.6 100380 88
2002-07-01 08:30:11 51°15.137 2°49.72 17.6 270 13.6 100390 88
2002-07-01 08:30:16 51°15.134 2°49.692 18.1 266 13.6 100390 88
2002-07-01 08:30:21 51°15.13 2°49.664 18.1 264 13.6 100360 88
2002-07-01 08:30:26 51°15.127 2°49.636 18.7 268 13.6 100360 88
2002-07-01 08:30:31 51°15.123 2°49.607 19.8 265 13.6 100400 88
2002-07-01 08:30:36 51°15.12 2°49.579 19.6 266 13.6 100400 88
2002-07-01 08:30:41 51°15.116 2°49.551 19.3 268 13.7 100390 88
2002-07-01 08:30:46 51°15.113 2°49.523 17 265 13.7 100390 88
2002-07-01 08:30:52 51°15.108 2°49.489 20.6 272 13.7 100390 88
2002-07-01 08:30:56 51°15.105 2°49.467 18 266 13.7 100390 88
2002-07-01 08:31:01 51°15.102 2°49.438 20.9 269 13.7 100390 88
2002-07-01 08:31:06 51°15.098 2°49.41 19.7 270 13.7 100390 88
2002-07-01 08:31:11 51°15.095 2°49.382 19.6 266 13.7 100400 88
2002-07-01 08:31:16 51°15.091 2°49.354 18.4 267 13.7 100400 88
2002-07-01 08:31:22 51°15.087 2°49.32 18.3 264 13.7 100400 88
2002-07-01 08:31:26 51°15.084 2°49.297 18.8 264 13.7 100400 88
2002-07-01 08:31:31 51°15.08 2°49.269 20 261 13.7 100390 88
2002-07-01 08:31:36 51°15.077 2°49.24 19.3 267 13.7 100390 88
2002-07-01 08:31:41 51°15.073 2°49.212 18.9 260 13.7 100390 88
2002-07-01 08:31:46 51°15.069 2°49.184 18.7 263 13.7 100390 88
2002-07-01 08:31:52 51°15.065 2°49.151 20.1 267 13.7 100400 88
2002-07-01 08:31:56 51°15.062 2°49.128 20.3 262 13.7 100400 88
2002-07-01 08:32:02 51°15.058 2°49.094 20.4 262 13.8 100390 88
2002-07-01 08:32:06 51°15.055 2°49.072 20.3 267 13.8 100390 88
2002-07-01 08:32:11 51°15.052 2°49.044 19.3 268 13.7 100390 87
2002-07-01 08:32:17 51°15.048 2°49.01 18.9 266 13.7 100390 87
2002-07-01 08:32:21 51°15.045 2°48.987 19.1 269 13.7 100390 87
2002-07-01 08:32:26 51°15.042 2°48.959 18.7 266 13.7 100390 87
2002-07-01 08:32:31 51°15.038 2°48.931 18.3 266 13.7 100380 87
2002-07-01 08:32:37 51°15.034 2°48.897 19 262 13.7 100380 87
2002-07-01 08:32:41 51°15.031 2°48.874 17.4 263 13.7 100390 87
2002-07-01 08:32:46 51°15.028 2°48.846 18.5 265 13.7 100390 87
2002-07-01 08:32:52 51°15.023 2°48.813 19.4 265 13.7 100400 88
2002-07-01 08:32:56 51°15.021 2°48.79 18.6 270 13.7 100400 88
2002-07-01 08:33:02 51°15.017 2°48.756 20.1 267 13.7 100400 88
2002-07-01 08:33:06 51°15.014 2°48.733 20.8 264 13.7 100400 88
2002-07-01 08:33:12 51°15.01 2°48.7 21.4 265 13.8 100400 88
2002-07-01 08:33:16 51°15.007 2°48.678 19.8 268 13.8 100400 88
2002-07-01 08:33:21 51°15.003 2°48.65 18.6 269 13.8 100380 88
2002-07-01 08:33:26 51°15 2°48.621 20.5 260 13.8 100380 88
2002-07-01 08:33:31 51°14.997 2°48.593 19.6 260 13.8 100400 87
2002-07-01 08:33:37 51°14.992 2°48.559 19.6 265 13.8 100400 87
2002-07-01 08:33:42 51°14.989 2°48.532 19.2 264 13.8 100370 87
2002-07-01 08:33:46 51°14.986 2°48.51 18.8 272 13.8 100370 87
2002-07-01 08:33:51 51°14.982 2°48.482 18.2 268 13.8 100410 87
2002-07-01 08:33:56 51°14.979 2°48.454 21.3 268 13.8 100410 87
2002-07-01 08:34:02 51°14.975 2°48.42 19.5 272 13.8 100400 87
2002-07-01 08:34:06 51°14.972 2°48.398 19.7 269 13.8 100400 87
2002-07-01 08:34:11 51°14.969 2°48.369 19.3 268 13.8 100380 87
2002-07-01 08:34:17 51°14.965 2°48.336 16.1 268 13.8 100380 87
2002-07-01 08:34:21 51°14.962 2°48.314 16.8 270 13.8 100390 87
2002-07-01 08:34:26 51°14.958 2°48.286 19.7 270 13.8 100390 87
2002-07-01 08:34:32 51°14.954 2°48.253 18.1 279 13.7 100380 87
2002-07-01 08:34:36 51°14.951 2°48.23 18.8 269 13.7 100380 87
2002-07-01 08:34:42 51°14.947 2°48.196 19.4 269 13.8 100400 87
2002-07-01 08:34:46 51°14.945 2°48.174 18.7 269 13.8 100400 87
2002-07-01 08:34:51 51°14.942 2°48.145 19.5 272 13.8 100390 87
2002-07-01 08:34:57 51°14.94 2°48.111 18.1 271 13.8 100390 87
2002-07-01 08:35:01 51°14.938 2°48.088 17.4 273 13.8 100390 87
2002-07-01 08:35:06 51°14.936 2°48.06 18.6 274 13.8 100390 87
2002-07-01 08:35:11 51°14.935 2°48.031 18.5 277 13.8 100380 87
2002-07-01 08:35:16 51°14.933 2°48.003 16.9 277 13.8 100380 87
2002-07-01 08:35:21 51°14.931 2°47.974 19.5 276 13.8 100400 87
2002-07-01 08:35:26 51°14.93 2°47.945 18.3 271 13.8 100400 87
2002-07-01 08:35:31 51°14.928 2°47.917 17.4 270 13.8 100380 88
2002-07-01 08:35:36 51°14.926 2°47.888 18.3 269 13.8 100380 88
2002-07-01 08:35:41 51°14.924 2°47.86 19.4 264 13.9 100400 88
2002-07-01 08:35:46 51°14.922 2°47.831 18.1 275 13.9 100400 88
2002-07-01 08:35:51 51°14.92 2°47.803 18.5 273 13.8 100400 87
2002-07-01 08:35:58 51°14.917 2°47.763 18.1 273 13.8 100400 87
2002-07-01 08:36:02 51°14.915 2°47.741 19.5 275 13.8 100380 87
2002-07-01 08:36:06 51°14.914 2°47.718 17.5 269 13.8 100380 87
2002-07-01 08:36:11 51°14.912 2°47.689 17.7 271 13.8 100390 87
2002-07-01 08:36:16 51°14.91 2°47.661 18.6 262 13.8 100390 87
2002-07-01 08:36:21 51°14.907 2°47.632 20.8 270 13.8 100390 87
2002-07-01 08:36:27 51°14.905 2°47.598 20.3 266 13.8 100390 87
2002-07-01 08:36:31 51°14.903 2°47.575 19.6 266 13.7 100390 87
2002-07-01 08:36:37 51°14.9 2°47.541 19.2 265 13.7 100390 87
2002-07-01 08:36:41 51°14.899 2°47.518 19.9 268 13.7 100390 87
2002-07-01 08:36:46 51°14.896 2°47.489 18.4 267 13.7 100390 87
2002-07-01 08:36:51 51°14.894 2°47.461 16.6 269 13.7 100380 87
2002-07-01 08:36:56 51°14.892 2°47.432 18.1 266 13.7 100380 87
2002-07-01 08:37:01 51°14.889 2°47.405 18.3 268 13.7 100390 87
2002-07-01 08:37:06 51°14.887 2°47.376 17.1 271 13.7 100390 87
2002-07-01 08:37:11 51°14.885 2°47.348 17.5 274 13.7 100380 87
2002-07-01 08:37:16 51°14.882 2°47.32 15.9 274 13.7 100380 87
2002-07-01 08:37:21 51°14.88 2°47.292 16.2 278 13.7 100410 87
2002-07-01 08:37:26 51°14.877 2°47.264 16.5 272 13.7 100410 87
2002-07-01 08:37:31 51°14.875 2°47.236 15.2 271 13.7 100390 87
2002-07-01 08:37:36 51°14.873 2°47.207 18.7 269 13.7 100390 87
2002-07-01 08:37:41 51°14.87 2°47.179 18.3 265 13.7 100400 87
2002-07-01 08:37:47 51°14.868 2°47.145 17.8 265 13.7 100400 87
2002-07-01 08:37:51 51°14.866 2°47.122 17.3 272 13.7 100400 87
2002-07-01 08:37:57 51°14.864 2°47.088 16.5 277 13.7 100400 87
2002-07-01 08:38:02 51°14.861 2°47.059 15.7 277 13.7 100400 87
2002-07-01 08:38:06 51°14.86 2°47.037 18.8 275 13.7 100400 87
2002-07-01 08:38:11 51°14.857 2°47.008 17.2 273 13.7 100390 87
2002-07-01 08:38:16 51°14.855 2°46.98 16.2 263 13.7 100390 87
2002-07-01 08:38:21 51°14.852 2°46.951 20.2 266 13.7 100390 87
2002-07-01 08:38:26 51°14.85 2°46.923 19.1 268 13.7 100390 87
2002-07-01 08:38:31 51°14.847 2°46.895 18.8 270 13.7 100390 87
2002-07-01 08:38:37 51°14.844 2°46.861 18.6 275 13.7 100390 87
2002-07-01 08:38:41 51°14.842 2°46.838 18.5 275 13.8 100390 88
2002-07-01 08:38:46 51°14.84 2°46.809 18.6 268 13.8 100390 88
2002-07-01 08:38:51 51°14.837 2°46.781 18.2 268 13.8 100390 88
2002-07-01 08:38:57 51°14.833 2°46.746 17.6 267 13.8 100390 88
2002-07-01 08:39:01 51°14.831 2°46.724 17.2 269 13.7 100390 87
2002-07-01 08:39:06 51°14.827 2°46.695 18.4 269 13.7 100390 87
2002-07-01 08:39:11 51°14.824 2°46.667 17.4 266 13.7 100400 87
2002-07-01 08:39:16 51°14.821 2°46.639 14.1 261 13.7 100400 87
2002-07-01 08:39:21 51°14.817 2°46.611 17.6 276 13.7 100400 87
2002-07-01 08:39:26 51°14.813 2°46.582 20.3 269 13.7 100400 87
2002-07-01 08:39:31 51°14.809 2°46.554 19.3 269 13.7 100400 87
2002-07-01 08:39:37 51°14.805 2°46.52 19.3 272 13.7 100400 87
2002-07-01 08:39:41 51°14.802 2°46.498 19.7 272 13.7 100410 88
2002-07-01 08:39:46 51°14.799 2°46.469 18.1 271 13.7 100410 88
2002-07-01 08:39:51 51°14.795 2°46.441 19.8 265 13.7 100410 88
2002-07-01 08:39:57 51°14.791 2°46.408 17.8 271 13.7 100410 88
2002-07-01 08:40:01 51°14.789 2°46.385 18.1 268 13.7 100380 87
2002-07-01 08:40:08 51°14.784 2°46.345 19.7 266 13.7 100380 87
2002-07-01 08:40:11 51°14.782 2°46.329 18.4 268 13.7 100400 87
2002-07-01 08:40:16 51°14.778 2°46.301 17.9 267 13.7 100400 87
2002-07-01 08:40:21 51°14.775 2°46.273 18.9 268 13.7 100400 87
2002-07-01 08:40:26 51°14.771 2°46.245 19.3 269 13.7 100400 87
2002-07-01 08:40:31 51°14.768 2°46.216 16.9 271 13.7 100390 88
2002-07-01 08:40:36 51°14.764 2°46.188 17.3 269 13.7 100390 88
2002-07-01 08:40:41 51°14.761 2°46.16 16.5 270 13.7 100390 88
2002-07-01 08:40:46 51°14.757 2°46.131 17.7 265 13.7 100390 88
2002-07-01 08:40:51 51°14.754 2°46.103 17.4 264 13.6 100410 87
2002-07-01 08:40:56 51°14.751 2°46.074 17.8 266 13.6 100410 87
2002-07-01 08:41:01 51°14.748 2°46.046 19.1 271 13.7 100410 88
2002-07-01 08:41:06 51°14.745 2°46.017 19 269 13.7 100410 88
2002-07-01 08:41:11 51°14.742 2°45.989 15.8 259 13.7 100410 88
2002-07-01 08:41:16 51°14.739 2°45.96 18.5 266 13.7 100410 88
2002-07-01 08:41:21 51°14.736 2°45.932 18.2 267 13.7 100410 88
2002-07-01 08:41:26 51°14.733 2°45.903 19.1 266 13.7 100410 88
2002-07-01 08:41:31 51°14.729 2°45.874 17.3 261 13.7 100400 88
2002-07-01 08:41:37 51°14.724 2°45.841 18.2 270 13.7 100400 88
2002-07-01 08:41:41 51°14.721 2°45.818 15.4 261 13.7 100400 88
2002-07-01 08:41:46 51°14.717 2°45.79 17.7 261 13.7 100400 88
2002-07-01 08:41:51 51°14.713 2°45.761 17.4 267 13.7 100400 88
2002-07-01 08:41:57 51°14.709 2°45.727 16.8 264 13.7 100400 88
2002-07-01 08:42:02 51°14.704 2°45.699 18.9 259 13.7 100410 88
2002-07-01 08:42:07 51°14.7 2°45.671 17.6 264 13.7 100410 88
2002-07-01 08:42:12 51°14.695 2°45.643 17.5 263 13.7 100410 88
2002-07-01 08:42:17 51°14.691 2°45.615 18.8 263 13.7 100410 88
2002-07-01 08:42:22 51°14.687 2°45.587 17.2 257 13.7 100420 88
2002-07-01 08:42:27 51°14.682 2°45.558 18.5 262 13.7 100420 88
2002-07-01 08:42:32 51°14.678 2°45.53 18.1 263 13.8 100420 88
2002-07-01 08:42:36 51°14.675 2°45.507 17.7 260 13.8 100420 88
2002-07-01 08:42:42 51°14.67 2°45.473 17.7 265 13.7 100410 88
2002-07-01 08:42:46 51°14.666 2°45.45 17.4 267 13.7 100410 88
2002-07-01 08:42:51 51°14.662 2°45.422 16.3 264 13.7 100410 88
2002-07-01 08:42:56 51°14.657 2°45.394 17.3 265 13.7 100410 88
2002-07-01 08:43:01 51°14.653 2°45.366 17.9 263 13.7 100410 88
2002-07-01 08:43:06 51°14.649 2°45.337 17.8 261 13.7 100410 88
2002-07-01 08:43:11 51°14.644 2°45.309 16.8 261 13.7 100410 88
2002-07-01 08:43:16 51°14.64 2°45.281 17.9 260 13.7 100410 88
2002-07-01 08:43:21 51°14.636 2°45.253 18.4 260 13.7 100420 88
2002-07-01 08:43:26 51°14.631 2°45.225 18.4 259 13.7 100420 88
2002-07-01 08:43:31 51°14.627 2°45.196 17.9 262 13.7 100410 88
2002-07-01 08:43:37 51°14.622 2°45.162 17 262 13.7 100410 88
2002-07-01 08:43:41 51°14.619 2°45.14 18.2 264 13.7 100410 88
2002-07-01 08:43:46 51°14.615 2°45.112 16.6 267 13.7 100410 88
2002-07-01 08:43:51 51°14.611 2°45.084 16.2 266 13.7 100410 88
2002-07-01 08:43:57 51°14.606 2°45.05 16.6 267 13.7 100410 88
2002-07-01 08:44:01 51°14.603 2°45.027 16.2 266 13.7 100400 88
2002-07-01 08:44:06 51°14.599 2°44.999 15.8 267 13.7 100400 88
2002-07-01 08:44:12 51°14.595 2°44.965 17 268 13.7 100400 88
2002-07-01 08:44:17 51°14.591 2°44.937 17.8 269 13.7 100400 88
2002-07-01 08:44:21 51°14.588 2°44.914 17.3 268 13.7 100400 88
2002-07-01 08:44:26 51°14.584 2°44.886 17.6 270 13.7 100400 88
2002-07-01 08:44:31 51°14.58 2°44.857 19 265 13.7 100410 89
2002-07-01 08:44:36 51°14.577 2°44.828 17.7 263 13.7 100410 89
2002-07-01 08:44:42 51°14.572 2°44.794 18.6 265 13.7 100410 89
2002-07-01 08:44:46 51°14.569 2°44.771 18.1 267 13.7 100410 89
2002-07-01 08:44:51 51°14.565 2°44.743 18 269 13.7 100410 89
2002-07-01 08:44:56 51°14.562 2°44.714 16 267 13.7 100410 89
2002-07-01 08:45:01 51°14.558 2°44.685 17.1 267 13.7 100410 89
2002-07-01 08:45:06 51°14.554 2°44.657 14.9 265 13.7 100410 89
2002-07-01 08:45:11 51°14.55 2°44.628 16.2 258 13.7 100410 88
2002-07-01 08:45:17 51°14.545 2°44.594 17.6 264 13.7 100410 88
2002-07-01 08:45:22 51°14.542 2°44.565 16.4 264 13.7 100400 88
2002-07-01 08:45:27 51°14.538 2°44.537 17.5 272 13.7 100400 88
2002-07-01 08:45:31 51°14.535 2°44.514 19.3 269 13.7 100410 89
2002-07-01 08:45:36 51°14.531 2°44.486 16.8 268 13.7 100410 89
2002-07-01 08:45:41 51°14.527 2°44.457 17.8 269 13.6 100400 89
2002-07-01 08:45:46 51°14.523 2°44.428 18.4 269 13.6 100400 89
2002-07-01 08:45:51 51°14.52 2°44.4 19.2 265 13.7 100390 89
2002-07-01 08:45:56 51°14.516 2°44.371 18.2 267 13.7 100390 89
2002-07-01 08:46:02 51°14.511 2°44.337 17.3 265 13.7 100400 89
2002-07-01 08:46:06 51°14.508 2°44.314 18.4 264 13.7 100400 89
2002-07-01 08:46:11 51°14.504 2°44.286 19.4 270 13.7 100400 89
2002-07-01 08:46:18 51°14.499 2°44.246 18.7 267 13.7 100400 89
2002-07-01 08:46:21 51°14.497 2°44.229 20.1 269 13.7 100400 89
2002-07-01 08:46:26 51°14.493 2°44.201 19.8 272 13.7 100400 89
2002-07-01 08:46:31 51°14.49 2°44.173 18.1 273 13.7 100410 89
2002-07-01 08:46:36 51°14.486 2°44.145 18.1 266 13.7 100410 89
2002-07-01 08:46:41 51°14.482 2°44.116 18.1 270 13.7 100400 89
2002-07-01 08:46:46 51°14.478 2°44.088 18.5 270 13.7 100400 89
2002-07-01 08:46:52 51°14.474 2°44.054 17.4 268 13.6 100400 89
2002-07-01 08:46:57 51°14.47 2°44.026 16.9 268 13.6 100400 89
2002-07-01 08:47:02 51°14.466 2°43.998 17.2 266 13.6 100390 88
2002-07-01 08:47:06 51°14.463 2°43.975 16.6 265 13.6 100390 88
2002-07-01 08:47:11 51°14.459 2°43.947 18.9 263 13.6 100400 89
2002-07-01 08:47:16 51°14.456 2°43.918 18.6 267 13.6 100400 89
2002-07-01 08:47:21 51°14.452 2°43.89 18.5 266 13.7 100400 89
2002-07-01 08:47:27 51°14.447 2°43.856 20.3 264 13.7 100400 89
2002-07-01 08:47:32 51°14.443 2°43.828 19.7 268 13.7 100410 89
2002-07-01 08:47:37 51°14.44 2°43.8 17.9 272 13.7 100410 89
2002-07-01 08:47:41 51°14.436 2°43.778 19.3 277 13.6 100400 89
2002-07-01 08:47:46 51°14.433 2°43.75 18.7 270 13.6 100400 89
2002-07-01 08:47:51 51°14.429 2°43.722 19 269 13.6 100410 89
2002-07-01 08:47:56 51°14.425 2°43.694 19.9 263 13.6 100410 89
2002-07-01 08:48:01 51°14.421 2°43.665 16.4 266 13.6 100380 89
2002-07-01 08:48:06 51°14.418 2°43.637 18.5 268 13.6 100380 89
2002-07-01 08:48:11 51°14.414 2°43.609 18 271 13.6 100390 89
2002-07-01 08:48:16 51°14.411 2°43.581 18.6 270 13.6 100390 89
2002-07-01 08:48:22 51°14.406 2°43.546 18.4 270 13.6 100390 89
2002-07-01 08:48:26 51°14.403 2°43.524 18.3 271 13.6 100390 89
2002-07-01 08:48:31 51°14.399 2°43.496 16.2 266 13.6 100400 89
2002-07-01 08:48:36 51°14.395 2°43.467 17.5 273 13.6 100400 89
2002-07-01 08:48:41 51°14.391 2°43.439 16.7 269 13.7 100390 89
2002-07-01 08:48:46 51°14.388 2°43.41 16.7 264 13.7 100390 89
2002-07-01 08:48:51 51°14.384 2°43.382 17.5 269 13.7 100400 89
2002-07-01 08:48:56 51°14.38 2°43.354 18.5 272 13.7 100400 89
2002-07-01 08:49:01 51°14.376 2°43.326 18.5 269 13.7 100410 89
2002-07-01 08:49:06 51°14.373 2°43.297 18.1 272 13.7 100410 89
2002-07-01 08:49:11 51°14.369 2°43.269 16.6 267 13.7 100410 89
2002-07-01 08:49:16 51°14.365 2°43.241 16.9 271 13.7 100410 89
2002-07-01 08:49:22 51°14.361 2°43.206 17.9 266 13.7 100390 89
2002-07-01 08:49:26 51°14.357 2°43.183 19.3 267 13.7 100390 89
2002-07-01 08:49:31 51°14.354 2°43.155 17.5 269 13.7 100410 89
2002-07-01 08:49:36 51°14.35 2°43.127 17.2 264 13.7 100410 89
2002-07-01 08:49:41 51°14.346 2°43.098 17.5 261 13.7 100400 89
2002-07-01 08:49:46 51°14.342 2°43.07 18.9 268 13.7 100400 89
2002-07-01 08:49:52 51°14.337 2°43.036 18.3 266 13.7 100420 89
2002-07-01 08:49:57 51°14.334 2°43.008 18.6 266 13.7 100420 89
2002-07-01 08:50:02 51°14.33 2°42.98 17.5 270 13.7 100410 89
2002-07-01 08:50:06 51°14.327 2°42.957 17.3 263 13.7 100410 89
2002-07-01 08:50:11 51°14.324 2°42.928 19 266 13.7 100400 89
2002-07-01 08:50:16 51°14.32 2°42.9 17.2 269 13.7 100400 89
2002-07-01 08:50:21 51°14.317 2°42.872 19.6 273 13.7 100410 89
2002-07-01 08:50:27 51°14.312 2°42.839 19.2 268 13.7 100410 89
2002-07-01 08:50:32 51°14.308 2°42.811 18.4 267 13.7 100410 89
2002-07-01 08:50:36 51°14.304 2°42.789 17.8 277 13.7 100410 89
2002-07-01 08:50:41 51°14.301 2°42.761 18.5 271 13.7 100390 89
2002-07-01 08:50:46 51°14.297 2°42.732 19.9 268 13.7 100390 89
2002-07-01 08:50:51 51°14.293 2°42.704 18.8 270 13.7 100410 89
2002-07-01 08:50:56 51°14.289 2°42.677 18.5 272 13.7 100410 89
2002-07-01 08:51:02 51°14.285 2°42.642 17.8 265 13.7 100390 89
2002-07-01 08:51:06 51°14.282 2°42.619 16.3 266 13.7 100390 89
2002-07-01 08:51:11 51°14.278 2°42.591 17 266 13.7 100390 89
2002-07-01 08:51:16 51°14.274 2°42.563 20.6 261 13.7 100390 89
2002-07-01 08:51:21 51°14.271 2°42.535 18.7 264 13.7 100380 89
2002-07-01 08:51:26 51°14.267 2°42.507 18.1 265 13.7 100380 89
2002-07-01 08:51:31 51°14.263 2°42.479 17.1 265 13.7 100390 89
2002-07-01 08:51:36 51°14.259 2°42.45 20 265 13.7 100390 89
2002-07-01 08:51:41 51°14.255 2°42.422 19.2 263 13.7 100400 89
2002-07-01 08:51:46 51°14.252 2°42.393 18.5 264 13.7 100400 89
2002-07-01 08:51:51 51°14.248 2°42.365 18.8 268 13.7 100400 89
2002-07-01 08:51:56 51°14.244 2°42.337 20 268 13.7 100400 89
2002-07-01 08:52:01 51°14.241 2°42.308 19.7 276 13.7 100400 89
2002-07-01 08:52:06 51°14.237 2°42.28 18.9 270 13.7 100400 89
2002-07-01 08:52:11 51°14.233 2°42.251 20.4 272 13.7 100400 89
2002-07-01 08:52:16 51°14.23 2°42.223 19.2 272 13.7 100400 89
2002-07-01 08:52:22 51°14.226 2°42.188 18.3 275 13.7 100390 89
2002-07-01 08:52:26 51°14.223 2°42.165 19 268 13.7 100390 89
2002-07-01 08:52:31 51°14.219 2°42.136 18.7 269 13.7 100390 89
2002-07-01 08:52:36 51°14.216 2°42.108 19 272 13.7 100390 89
2002-07-01 08:52:42 51°14.211 2°42.074 16.2 265 13.6 100390 89
2002-07-01 08:52:46 51°14.208 2°42.052 18.6 268 13.6 100390 89
2002-07-01 08:52:51 51°14.204 2°42.023 20.8 272 13.7 100400 89
2002-07-01 08:52:56 51°14.2 2°41.995 17.8 268 13.7 100400 89
2002-07-01 08:53:01 51°14.196 2°41.967 21 270 13.7 100400 89
2002-07-01 08:53:06 51°14.193 2°41.939 21 265 13.7 100400 89
2002-07-01 08:53:11 51°14.189 2°41.911 18.4 268 13.7 100410 89
2002-07-01 08:53:17 51°14.184 2°41.88 18.2 275 13.7 100410 89
2002-07-01 08:53:21 51°14.182 2°41.861 18.8 275 13.6 100400 89
2002-07-01 08:53:26 51°14.178 2°41.839 18.4 272 13.6 100400 89
2002-07-01 08:53:31 51°14.175 2°41.817 15.3 264 13.6 100390 89
2002-07-01 08:53:37 51°14.172 2°41.793 17.6 267 13.6 100390 89
2002-07-01 08:53:41 51°14.169 2°41.778 16.5 266 13.6 100390 89
2002-07-01 08:53:46 51°14.167 2°41.76 16.3 268 13.6 100390 89
2002-07-01 08:53:52 51°14.164 2°41.74 16.4 272 13.6 100400 89
2002-07-01 08:53:56 51°14.162 2°41.727 16.5 269 13.6 100400 89
2002-07-01 08:54:02 51°14.16 2°41.709 16.4 273 13.6 100420 89
2002-07-01 08:54:07 51°14.158 2°41.694 14.8 273 13.6 100420 89
2002-07-01 08:54:11 51°14.156 2°41.682 15.4 272 13.6 100400 89
2002-07-01 08:54:17 51°14.154 2°41.666 15.4 269 13.6 100400 89
2002-07-01 08:54:21 51°14.153 2°41.655 15.7 271 13.6 100400 89
2002-07-01 08:54:26 51°14.151 2°41.643 17 273 13.6 100400 89
2002-07-01 08:54:31 51°14.15 2°41.63 16.8 278 13.6 100410 89
2002-07-01 08:54:37 51°14.148 2°41.615 16.2 274 13.6 100410 89
2002-07-01 08:54:41 51°14.148 2°41.606 15.7 274 13.6 100420 89
2002-07-01 08:54:46 51°14.146 2°41.595 16.5 272 13.6 100420 89
2002-07-01 08:54:51 51°14.145 2°41.583 15.3 267 13.6 100400 89
2002-07-01 08:54:57 51°14.143 2°41.57 15.9 270 13.6 100400 89
2002-07-01 08:55:01 51°14.142 2°41.561 15.3 263 13.6 100410 89
2002-07-01 08:55:06 51°14.141 2°41.551 15.8 266 13.6 100410 89
2002-07-01 08:55:12 51°14.139 2°41.538 15.6 264 13.6 100400 89
2002-07-01 08:55:17 51°14.137 2°41.528 15 265 13.6 100400 89
2002-07-01 08:55:21 51°14.136 2°41.521 14.5 266 13.6 100410 89
2002-07-01 08:55:26 51°14.134 2°41.511 16.8 264 13.6 100410 89
2002-07-01 08:55:31 51°14.132 2°41.501 15.1 266 13.6 100420 89
2002-07-01 08:55:37 51°14.13 2°41.49 16.3 265 13.6 100420 89
2002-07-01 08:55:41 51°14.129 2°41.482 15.1 270 13.6 100420 89
2002-07-01 08:55:46 51°14.128 2°41.473 14.9 268 13.6 100420 89
2002-07-01 08:55:52 51°14.126 2°41.462 13.6 271 13.6 100420 89
2002-07-01 08:55:56 51°14.125 2°41.456 13.9 268 13.6 100420 89
2002-07-01 08:56:01 51°14.124 2°41.448 12.8 269 13.6 100410 89
2002-07-01 08:56:06 51°14.122 2°41.44 14.5 271 13.6 100410 89
2002-07-01 08:56:11 51°14.121 2°41.432 13.6 276 13.5 100420 89
2002-07-01 08:56:16 51°14.12 2°41.424 14.9 270 13.5 100420 89
2002-07-01 08:56:21 51°14.119 2°41.416 14.3 273 13.5 100420 89
2002-07-01 08:56:26 51°14.118 2°41.409 13.3 271 13.5 100420 89
2002-07-01 08:56:31 51°14.117 2°41.401 14.3 277 13.5 100420 89
2002-07-01 08:56:36 51°14.116 2°41.394 13.4 267 13.5 100420 89
2002-07-01 08:56:42 51°14.116 2°41.386 14.2 278 13.6 100430 89
2002-07-01 08:56:46 51°14.115 2°41.381 12.6 276 13.6 100430 89
2002-07-01 08:56:51 51°14.115 2°41.375 12.5 281 13.6 100430 89
2002-07-01 08:56:57 51°14.114 2°41.367 13.2 272 13.6 100430 89
2002-07-01 08:57:01 51°14.114 2°41.363 12.3 276 13.6 100420 89
2002-07-01 08:57:06 51°14.114 2°41.357 12.7 268 13.6 100420 89
2002-07-01 08:57:11 51°14.113 2°41.351 11.4 276 13.6 100410 90
2002-07-01 08:57:16 51°14.113 2°41.346 11.8 277 13.6 100410 90
2002-07-01 08:57:21 51°14.112 2°41.34 13 274 13.7 100420 90
2002-07-01 08:57:27 51°14.112 2°41.334 14.4 274 13.7 100420 90
2002-07-01 08:57:32 51°14.112 2°41.329 13.5 271 13.7 100410 90
2002-07-01 08:57:35 51°14.112 2°41.326 14 272 13.7 100410 90
2002-07-01 08:57:41 51°14.112 2°41.32 13.4 274 13.7 100420 90
2002-07-01 08:57:46 51°14.112 2°41.315 13.7 279 13.7 100420 90
2002-07-01 08:57:51 51°14.112 2°41.311 13.3 278 13.7 100410 90
2002-07-01 08:57:56 51°14.112 2°41.306 13.2 280 13.7 100410 90
2002-07-01 08:58:01 51°14.112 2°41.301 11.9 278 13.7 100420 90
2002-07-01 08:58:06 51°14.112 2°41.297 13.8 277 13.7 100420 90
2002-07-01 08:58:11 51°14.112 2°41.292 13.4 277 13.7 100420 90
2002-07-01 08:58:17 51°14.112 2°41.287 14.6 276 13.7 100420 90
2002-07-01 08:58:21 51°14.112 2°41.285 14.3 277 13.7 100410 90
2002-07-01 08:58:26 51°14.113 2°41.281 13.8 280 13.7 100410 90
2002-07-01 08:58:31 51°14.113 2°41.277 12.2 281 13.7 100410 89
2002-07-01 08:58:37 51°14.113 2°41.272 13.5 277 13.7 100410 89
2002-07-01 08:58:43 51°14.113 2°41.268 12.4 277 13.6 100420 89
2002-07-01 08:58:46 51°14.113 2°41.265 12.7 275 13.6 100420 89
2002-07-01 08:58:51 51°14.113 2°41.261 15.5 277 13.6 100410 89
2002-07-01 08:58:57 51°14.113 2°41.257 14.3 280 13.6 100410 89
2002-07-01 08:59:01 51°14.114 2°41.254 13.8 276 13.6 100410 89
2002-07-01 08:59:07 51°14.114 2°41.25 15 284 13.6 100410 89
2002-07-01 08:59:11 51°14.115 2°41.247 13.4 283 13.6 100430 90
2002-07-01 08:59:17 51°14.115 2°41.243 13.6 281 13.6 100430 90
2002-07-01 08:59:21 51°14.115 2°41.239 13.8 281 13.6 100410 90
2002-07-01 08:59:26 51°14.115 2°41.236 15.5 280 13.6 100410 90
2002-07-01 08:59:31 51°14.115 2°41.232 13.2 281 13.6 100410 90
2002-07-01 08:59:35 51°14.115 2°41.229 13.4 268 13.6 100410 90
2002-07-01 08:59:41 51°14.116 2°41.225 12.4 274 13.6 100430 89
2002-07-01 08:59:47 51°14.116 2°41.221 12.5 280 13.6 100430 89
2002-07-01 08:59:51 51°14.116 2°41.218 12.5 274 13.6 100430 90
2002-07-01 08:59:57 51°14.116 2°41.214 13.3 276 13.6 100430 90
2002-07-01 09:00:01 51°14.115 2°41.211 12.4 273 13.6 100400 90
2002-07-01 09:00:06 51°14.115 2°41.207 13.3 271 13.6 100400 90
2002-07-01 09:00:11 51°14.115 2°41.204 15.3 269 13.6 100400 90
2002-07-01 09:00:16 51°14.115 2°41.2 14.2 271 13.6 100400 90
2002-07-01 09:00:22 51°14.115 2°41.195 14.8 271 13.6 100410 90
2002-07-01 09:00:27 51°14.114 2°41.192 14.7 272 13.6 100410 90
2002-07-01 09:00:31 51°14.114 2°41.189 14.3 273 13.7 100400 90
2002-07-01 09:00:36 51°14.114 2°41.185 12.1 277 13.7 100400 90
2002-07-01 09:00:41 51°14.114 2°41.181 12.8 269 13.6 100400 90
2002-07-01 09:00:47 51°14.113 2°41.175 16 266 13.6 100400 90
2002-07-01 09:00:51 51°14.112 2°41.172 15.9 270 13.6 100410 90
2002-07-01 09:00:57 51°14.111 2°41.166 15.6 266 13.6 100410 90
2002-07-01 09:01:01 51°14.11 2°41.162 13.5 264 13.6 100420 90
2002-07-01 09:01:07 51°14.109 2°41.156 15.1 272 13.6 100420 90
2002-07-01 09:01:11 51°14.109 2°41.152 14.5 263 13.6 100390 90
2002-07-01 09:01:17 51°14.107 2°41.145 15.6 262 13.6 100390 90
2002-07-01 09:01:21 51°14.106 2°41.141 16.3 263 13.6 100400 90
2002-07-01 09:01:26 51°14.105 2°41.135 15.8 268 13.6 100400 90
2002-07-01 09:01:31 51°14.103 2°41.13 14.5 274 13.7 100400 90
2002-07-01 09:01:37 51°14.102 2°41.123 14.6 279 13.7 100400 90
2002-07-01 09:01:42 51°14.102 2°41.117 13.4 278 13.6 100380 90
2002-07-01 09:01:46 51°14.101 2°41.112 15.2 272 13.6 100380 90
2002-07-01 09:01:51 51°14.101 2°41.107 13.7 279 13.6 100390 90
2002-07-01 09:01:56 51°14.1 2°41.101 14 279 13.6 100390 90
2002-07-01 09:02:01 51°14.1 2°41.095 12.7 278 13.6 100390 90
2002-07-01 09:02:07 51°14.1 2°41.089 15.3 283 13.6 100390 90
2002-07-01 09:02:11 51°14.1 2°41.084 14.7 295 13.6 100390 90
2002-07-01 09:02:16 51°14.1 2°41.08 14.2 284 13.6 100390 90
2002-07-01 09:02:21 51°14.1 2°41.075 13 284 13.6 100400 90
2002-07-01 09:02:26 51°14.1 2°41.07 15.1 284 13.6 100400 90
2002-07-01 09:02:31 51°14.101 2°41.066 17.4 276 13.7 100420 90
2002-07-01 09:02:36 51°14.101 2°41.062 14.3 277 13.7 100420 90
2002-07-01 09:02:42 51°14.102 2°41.057 14.6 280 13.6 100410 90
2002-07-01 09:02:46 51°14.103 2°41.054 12.4 284 13.6 100410 90
2002-07-01 09:02:51 51°14.103 2°41.05 13.3 283 13.6 100410 90
2002-07-01 09:02:57 51°14.104 2°41.045 13.8 280 13.6 100410 90
2002-07-01 09:03:01 51°14.104 2°41.043 14.5 276 13.6 100390 90
2002-07-01 09:03:06 51°14.105 2°41.039 13.3 275 13.6 100390 90
2002-07-01 09:03:11 51°14.106 2°41.036 13.3 278 13.6 100390 90
2002-07-01 09:03:15 51°14.106 2°41.034 12 282 13.6 100390 90
2002-07-01 09:03:22 51°14.107 2°41.03 15.6 281 13.6 100420 90
2002-07-01 09:03:26 51°14.107 2°41.027 14.4 275 13.6 100420 90
2002-07-01 09:03:31 51°14.108 2°41.025 16 283 13.6 100420 90
2002-07-01 09:03:36 51°14.109 2°41.022 16.5 283 13.6 100420 90
2002-07-01 09:03:41 51°14.11 2°41.02 15.1 286 13.6 100400 90
2002-07-01 09:03:47 51°14.11 2°41.017 13.9 288 13.6 100400 90
2002-07-01 09:03:51 51°14.111 2°41.016 13.9 288 13.6 100410 90
2002-07-01 09:03:56 51°14.112 2°41.014 14.1 286 13.6 100410 90
2002-07-01 09:04:02 51°14.113 2°41.012 13.7 283 13.6 100410 90
2002-07-01 09:04:06 51°14.114 2°41.011 13.7 283 13.6 100410 90
2002-07-01 09:04:11 51°14.115 2°41.01 13.4 286 13.6 100420 90
2002-07-01 09:04:17 51°14.117 2°41.008 13.2 283 13.6 100420 90
2002-07-01 09:04:21 51°14.118 2°41.007 12.5 285 13.6 100420 90
2002-07-01 09:04:27 51°14.119 2°41.005 12.8 288 13.6 100420 90
2002-07-01 09:04:31 51°14.12 2°41.004 12.1 287 13.6 100420 90
2002-07-01 09:04:37 51°14.121 2°41.002 14.8 294 13.6 100420 90
2002-07-01 09:04:41 51°14.122 2°41.001 13.8 293 13.6 100420 90
2002-07-01 09:04:46 51°14.124 2°41 13.5 291 13.6 100420 90
2002-07-01 09:04:51 51°14.125 2°40.999 14.1 291 13.6 100400 90
2002-07-01 09:04:57 51°14.127 2°40.997 14.1 297 13.6 100400 90
2002-07-01 09:05:01 51°14.127 2°40.996 16.7 301 13.6 100420 90
2002-07-01 09:05:06 51°14.129 2°40.995 15.3 295 13.6 100420 90
2002-07-01 09:05:11 51°14.13 2°40.993 14.3 297 13.6 100420 90
2002-07-01 09:05:17 51°14.132 2°40.992 13.7 298 13.6 100420 90
2002-07-01 09:05:21 51°14.133 2°40.991 15.7 303 13.6 100410 90
2002-07-01 09:05:26 51°14.135 2°40.99 16 298 13.6 100410 90
2002-07-01 09:05:31 51°14.136 2°40.989 14.9 294 13.6 100410 90
2002-07-01 09:05:37 51°14.138 2°40.988 14.6 298 13.6 100410 90
2002-07-01 09:05:42 51°14.14 2°40.987 13.3 298 13.6 100420 90
2002-07-01 09:05:46 51°14.141 2°40.986 9.3 306 13.6 100420 90
2002-07-01 09:05:51 51°14.143 2°40.986 11.1 295 13.6 100410 90
2002-07-01 09:05:56 51°14.144 2°40.985 11.8 308 13.6 100410 90
2002-07-01 09:06:01 51°14.146 2°40.984 9.2 318 13.5 100420 90
2002-07-01 09:06:06 51°14.148 2°40.981 11.9 302 13.5 100420 90
2002-07-01 09:06:11 51°14.15 2°40.977 10.6 305 13.6 100410 90
2002-07-01 09:06:16 51°14.153 2°40.972 4.6 331 13.6 100410 90
2002-07-01 09:06:21 51°14.156 2°40.965 3.2 345 13.6 100420 90
2002-07-01 09:06:26 51°14.16 2°40.958 3.4 322 13.6 100420 90
2002-07-01 09:06:31 51°14.165 2°40.952 9.8 1 13.6 100430 90
2002-07-01 09:06:36 51°14.171 2°40.946 10.8   13.6 100430 90
2002-07-01 09:06:42 51°14.178 2°40.94 11.1 4 13.6 100420 90
2002-07-01 09:06:46 51°14.184 2°40.937 13.9 11 13.6 100420 90
2002-07-01 09:06:51 51°14.191 2°40.934 13.6 20 13.6 100450 90
2002-07-01 09:06:56 51°14.2 2°40.934 12.9 38 13.6 100450 90
2002-07-01 09:07:02 51°14.211 2°40.937 10.7 57 13.6 100430 90
2002-07-01 09:07:06 51°14.218 2°40.941 11.9 69 13.6 100430 90
2002-07-01 09:07:11 51°14.226 2°40.95 12.1 80 13.6 100450 90
2002-07-01 09:07:16 51°14.233 2°40.959 11.3 91 13.6 100450 90
2002-07-01 09:07:22 51°14.239 2°40.974 10.7 101 13.5 100440 90
2002-07-01 09:07:26 51°14.242 2°40.984 9.9 115 13.5 100440 90
2002-07-01 09:07:31 51°14.245 2°40.997 13 128 13.5 100420 90
2002-07-01 09:07:37 51°14.246 2°41.014 10.7 138 13.5 100420 90
2002-07-01 09:07:41 51°14.245 2°41.023 11.5 146 13.5 100420 90
2002-07-01 09:07:46 51°14.244 2°41.035 12.3 147 13.5 100420 90
2002-07-01 09:07:52 51°14.243 2°41.047 13 142 13.5 100400 90
2002-07-01 09:07:56 51°14.242 2°41.055 13.8 146 13.5 100400 90
2002-07-01 09:08:01 51°14.239 2°41.066 14.8 159 13.5 100400 90
2002-07-01 09:08:06 51°14.237 2°41.077 16.5 173 13.5 100400 90
2002-07-01 09:08:11 51°14.233 2°41.087 16.4 173 13.6 100400 90
2002-07-01 09:08:16 51°14.228 2°41.096 14 186 13.6 100400 90
2002-07-01 09:08:21 51°14.221 2°41.105 16.2 198 13.6 100400 90
2002-07-01 09:08:26 51°14.214 2°41.111 17.8 205 13.6 100400 90
2002-07-01 09:08:31 51°14.206 2°41.115 15.8 212 13.6 100390 90
2002-07-01 09:08:37 51°14.196 2°41.118 16 211 13.6 100390 90
2002-07-01 09:08:41 51°14.19 2°41.119 16.7 217 13.6 100360 90
2002-07-01 09:08:46 51°14.182 2°41.119 16.8 217 13.6 100360 90
2002-07-01 09:08:51 51°14.174 2°41.118 15.9 216 13.5 100370 90
2002-07-01 09:08:57 51°14.163 2°41.117 16.8 213 13.5 100370 90
2002-07-01 09:09:02 51°14.155 2°41.115 15.8 214 13.5 100390 90
2002-07-01 09:09:07 51°14.147 2°41.115 14.1 221 13.5 100390 90
2002-07-01 09:09:11 51°14.14 2°41.114 16.7 223 13.5 100390 90
2002-07-01 09:09:17 51°14.131 2°41.114 17.6 218 13.5 100390 90
2002-07-01 09:09:21 51°14.125 2°41.113 17.3 214 13.5 100390 90
2002-07-01 09:09:26 51°14.118 2°41.113 15.8 218 13.5 100390 90
2002-07-01 09:09:31 51°14.111 2°41.113 16.6 215 13.6 100390 90
2002-07-01 09:09:37 51°14.103 2°41.114 16 212 13.6 100390 90
2002-07-01 09:09:41 51°14.099 2°41.114 14.6 211 13.6 100390 90
2002-07-01 09:09:46 51°14.095 2°41.113 13.7 209 13.6 100390 90
2002-07-01 09:09:51 51°14.091 2°41.114 13.8 211 13.6 100390 90
2002-07-01 09:09:56 51°14.089 2°41.114 14 210 13.6 100390 90
2002-07-01 09:10:01 51°14.088 2°41.114 13.4 210 13.5 100400 90
2002-07-01 09:10:06 51°14.087 2°41.115 14.5 209 13.5 100400 90
2002-07-01 09:10:11 51°14.086 2°41.115 14.4 209 13.5 100390 90
2002-07-01 09:10:15 51°14.085 2°41.115 12.9 201 13.5 100390 90
2002-07-01 09:10:21 51°14.084 2°41.116 13.5 202 13.5 100400 90
2002-07-01 09:10:27 51°14.084 2°41.116 13.4 207 13.5 100400 90
2002-07-01 09:10:31 51°14.083 2°41.118 12.5 204 13.5 100390 90
2002-07-01 09:10:35 51°14.083 2°41.118 11.9 205 13.5 100390 90
2002-07-01 09:10:41 51°14.082 2°41.118 13.9 200 13.5 100400 90
2002-07-01 09:10:47 51°14.082 2°41.119 11.5 202 13.5 100400 90
2002-07-01 09:10:51 51°14.082 2°41.12 12.5 196 13.5 100390 90
2002-07-01 09:10:57 51°14.081 2°41.121 11.6 192 13.5 100390 90
2002-07-01 09:11:01 51°14.081 2°41.121 11.7 199 13.6 100400 90
2002-07-01 09:11:06 51°14.081 2°41.123 12.1 193 13.6 100400 90
2002-07-01 09:11:11 51°14.081 2°41.123 10.5 201 13.5 100400 90
2002-07-01 09:11:16 51°14.081 2°41.125 11.8 201 13.5 100400 90
2002-07-01 09:11:21 51°14.08 2°41.125 13.1 203 13.6 100390 91
2002-07-01 09:11:27 51°14.08 2°41.126 13.4 196 13.6 100390 91
2002-07-01 09:11:31 51°14.08 2°41.127 14.8 194 13.6 100400 91
2002-07-01 09:11:36 51°14.08 2°41.128 13.2 189 13.6 100400 91
2002-07-01 09:11:41 51°14.081 2°41.129 12.5 188 13.7 100400 91
2002-07-01 09:11:46 51°14.081 2°41.13 12.2 190 13.7 100400 91
2002-07-01 09:11:51 51°14.081 2°41.131 11.3 187 13.6 100390 91
2002-07-01 09:11:56 51°14.081 2°41.132 9.9 179 13.6 100390 91
2002-07-01 09:12:01 51°14.081 2°41.133 11.3 182 13.6 100390 90
2002-07-01 09:12:06 51°14.082 2°41.134 11.3 180 13.6 100390 90
2002-07-01 09:12:11 51°14.082 2°41.135 10.6 180 13.6 100380 90
2002-07-01 09:12:16 51°14.083 2°41.136 12.3 171 13.6 100380 90
2002-07-01 09:12:21 51°14.083 2°41.137 10.4 173 13.5 100400 90
2002-07-01 09:12:26 51°14.084 2°41.138 12.8 175 13.5 100400 90
2002-07-01 09:12:31 51°14.084 2°41.139 13 174 13.5 100380 90
2002-07-01 09:12:37 51°14.085 2°41.14 13.7 173 13.5 100380 90
2002-07-01 09:12:42 51°14.086 2°41.141 16 169 13.5 100380 91
2002-07-01 09:12:46 51°14.086 2°41.142 15.7 167 13.5 100380 91
2002-07-01 09:12:51 51°14.087 2°41.143 13.4 168 13.5 100390 91
2002-07-01 09:12:57 51°14.088 2°41.144 12.4 160 13.5 100390 91
2002-07-01 09:13:01 51°14.088 2°41.145 13.1 151 13.5 100390 91
2002-07-01 09:13:07 51°14.09 2°41.146 15.7 157 13.5 100390 91
2002-07-01 09:13:12 51°14.09 2°41.147 14.1 164 13.5 100390 91
2002-07-01 09:13:17 51°14.091 2°41.148 13.4 153 13.5 100390 91
2002-07-01 09:13:21 51°14.092 2°41.149 12.8 136 13.5 100400 91
2002-07-01 09:13:26 51°14.093 2°41.15 12 150 13.5 100400 91
2002-07-01 09:13:31 51°14.094 2°41.151 11.9 148 13.5 100390 91
2002-07-01 09:13:36 51°14.094 2°41.152 14.2 147 13.5 100390 91
2002-07-01 09:13:41 51°14.095 2°41.153 12.5 144 13.5 100400 91
2002-07-01 09:13:46 51°14.096 2°41.154 15 147 13.5 100400 91
2002-07-01 09:13:51 51°14.097 2°41.155 14.4 147 13.5 100400 91
2002-07-01 09:13:56 51°14.097 2°41.156 12.7 149 13.5 100400 91
2002-07-01 09:14:01 51°14.098 2°41.157 11.6 157 13.5 100400 91
2002-07-01 09:14:06 51°14.099 2°41.158 12.8 142 13.5 100400 91
2002-07-01 09:14:11 51°14.1 2°41.159 13.4 142 13.5 100390 91
2002-07-01 09:14:17 51°14.101 2°41.16 14.3 149 13.5 100390 91
2002-07-01 09:14:22 51°14.102 2°41.161 12.6 143 13.5 100410 91
2002-07-01 09:14:26 51°14.103 2°41.161 12.2 146 13.5 100410 91
2002-07-01 09:14:31 51°14.103 2°41.162 13.5 158 13.5 100400 91
2002-07-01 09:14:36 51°14.104 2°41.163 11.2 155 13.5 100400 91
2002-07-01 09:14:41 51°14.105 2°41.164 11.5 153 13.5 100400 91
2002-07-01 09:14:46 51°14.106 2°41.164 13.5 150 13.5 100400 91
2002-07-01 09:14:51 51°14.107 2°41.165 12.8 149 13.5 100400 91
2002-07-01 09:14:56 51°14.108 2°41.165 12.3 152 13.5 100400 91
2002-07-01 09:15:02 51°14.109 2°41.166 12 143 13.6 100410 91
2002-07-01 09:15:06 51°14.109 2°41.166 13 138 13.6 100410 91
2002-07-01 09:15:11 51°14.11 2°41.167 12.9 145 13.6 100410 91
2002-07-01 09:15:17 51°14.112 2°41.167 12.7 145 13.6 100410 91
2002-07-01 09:15:21 51°14.113 2°41.168 13.5 136 13.6 100410 91
2002-07-01 09:15:26 51°14.114 2°41.168 16.5 136 13.6 100410 91
2002-07-01 09:15:31 51°14.115 2°41.168 13.7 137 13.5 100400 91
2002-07-01 09:15:37 51°14.117 2°41.169 14.1 125 13.5 100400 91
2002-07-01 09:15:41 51°14.118 2°41.169 14.4 138 13.5 100400 91
2002-07-01 09:15:47 51°14.119 2°41.169 13 138 13.5 100400 91
2002-07-01 09:15:51 51°14.12 2°41.168 15.2 132 13.5 100400 91
2002-07-01 09:15:57 51°14.122 2°41.169 15.3 139 13.5 100400 91
2002-07-01 09:16:01 51°14.123 2°41.169 15 139 13.5 100400 91
2002-07-01 09:16:06 51°14.124 2°41.168 13.4 141 13.5 100400 91
2002-07-01 09:16:11 51°14.125 2°41.168 14.1 138 13.5 100400 91
2002-07-01 09:16:16 51°14.127 2°41.168 15.2 135 13.5 100400 91
2002-07-01 09:16:21 51°14.128 2°41.168 15.1 129 13.5 100400 91
2002-07-01 09:16:25 51°14.129 2°41.168 13.5 138 13.5 100400 91
2002-07-01 09:16:31 51°14.131 2°41.168 12.7 131 13.5 100410 91
2002-07-01 09:16:35 51°14.132 2°41.168 14.5 132 13.5 100410 91
2002-07-01 09:16:42 51°14.133 2°41.167 14 140 13.5 100410 91
2002-07-01 09:16:47 51°14.135 2°41.167 13.9 140 13.5 100410 91
2002-07-01 09:16:51 51°14.136 2°41.167 13.7 132 13.4 100400 91
2002-07-01 09:16:57 51°14.137 2°41.166 13.9 135 13.4 100400 91
2002-07-01 09:17:01 51°14.139 2°41.166 14.7 137 13.4 100400 91
2002-07-01 09:17:06 51°14.14 2°41.166 13 136 13.4 100400 91
2002-07-01 09:17:11 51°14.142 2°41.165 12.8 134 13.5 100400 91
2002-07-01 09:17:16 51°14.143 2°41.165 12.3 140 13.5 100400 91
2002-07-01 09:17:21 51°14.144 2°41.165 12.6 130 13.5 100400 91
2002-07-01 09:17:27 51°14.145 2°41.164 10.4 131 13.5 100400 91
2002-07-01 09:17:31 51°14.147 2°41.164 13.7 129 13.5 100400 91
2002-07-01 09:17:36 51°14.148 2°41.164 13.5 124 13.5 100400 91
2002-07-01 09:17:41 51°14.149 2°41.164 12.7 124 13.5 100410 91
2002-07-01 09:17:46 51°14.15 2°41.163 14.1 131 13.5 100410 91
2002-07-01 09:17:51 51°14.151 2°41.163 13.8 137 13.5 100410 91
2002-07-01 09:17:57 51°14.153 2°41.164 11.5 133 13.5 100410 91
2002-07-01 09:18:01 51°14.153 2°41.165 12.9 138 13.5 100410 91
2002-07-01 09:18:06 51°14.154 2°41.167 12.6 146 13.5 100410 91
2002-07-01 09:18:11 51°14.154 2°41.171 11.7 147 13.5 100420 91
2002-07-01 09:18:16 51°14.154 2°41.175 14.6 157 13.5 100420 91
2002-07-01 09:18:22 51°14.152 2°41.18 13.8 164 13.5 100410 91
2002-07-01 09:18:27 51°14.149 2°41.186 17.2 166 13.5 100410 91
2002-07-01 09:18:31 51°14.147 2°41.19 15.2 171 13.5 100410 91
2002-07-01 09:18:37 51°14.142 2°41.196 11.5 177 13.5 100410 91
2002-07-01 09:18:41 51°14.138 2°41.199 14.9 194 13.5 100390 91
2002-07-01 09:18:46 51°14.132 2°41.203 15.3 204 13.5 100390 91
2002-07-01 09:18:51 51°14.125 2°41.205 15.2 210 13.4 100390 91
2002-07-01 09:18:57 51°14.116 2°41.205 15.5 223 13.4 100390 91
2002-07-01 09:19:02 51°14.109 2°41.204 15.7 224 13.5 100380 91
2002-07-01 09:19:06 51°14.103 2°41.201 17.7 226 13.5 100380 91
2002-07-01 09:19:11 51°14.096 2°41.196 17.3 236 13.4 100390 91
2002-07-01 09:19:17 51°14.088 2°41.187 16.7 247 13.4 100390 91
2002-07-01 09:19:21 51°14.084 2°41.181 17.4 254 13.5 100390 91
2002-07-01 09:19:26 51°14.08 2°41.171 15.9 258 13.5 100390 91
2002-07-01 09:19:31 51°14.077 2°41.163 15.1 259 13.5 100410 91
2002-07-01 09:19:36 51°14.075 2°41.155 14.7 263 13.5 100410 91
2002-07-01 09:19:41 51°14.072 2°41.147 15.8 260 13.5 100380 91
2002-07-01 09:19:45 51°14.07 2°41.141 14.4 261 13.5 100380 91
2002-07-01 09:19:51 51°14.068 2°41.133 13.9 265 13.5 100380 91
2002-07-01 09:19:55 51°14.067 2°41.127 14.1 261 13.5 100380 91
2002-07-01 09:20:02 51°14.065 2°41.118 14.9 259 13.5 100370 91
2002-07-01 09:20:06 51°14.064 2°41.113 14.1 265 13.5 100370 91
2002-07-01 09:20:11 51°14.064 2°41.108 15.4 266 13.5 100380 91
2002-07-01 09:20:17 51°14.063 2°41.102 15.7 265 13.5 100380 91
2002-07-01 09:20:21 51°14.063 2°41.099 15 270 13.5 100380 91
2002-07-01 09:20:26 51°14.063 2°41.095 14.5 275 13.5 100380 91
2002-07-01 09:20:31 51°14.062 2°41.091 13.7 273 13.5 100390 91
2002-07-01 09:20:36 51°14.063 2°41.087 13.4 266 13.5 100390 91
2002-07-01 09:20:42 51°14.063 2°41.083 12.3 278 13.5 100380 91
2002-07-01 09:20:47 51°14.063 2°41.08 14.3 272 13.5 100380 91
2002-07-01 09:20:51 51°14.063 2°41.077 13.3 273 13.5 100390 91
2002-07-01 09:20:56 51°14.064 2°41.074 12.9 274 13.5 100390 91
2002-07-01 09:21:01 51°14.064 2°41.071 14 269 13.5 100400 91
2002-07-01 09:21:06 51°14.064 2°41.068 13.4 266 13.5 100400 91
2002-07-01 09:21:11 51°14.065 2°41.065 12.6 269 13.5 100390 91
2002-07-01 09:21:17 51°14.066 2°41.062 13.7 275 13.5 100390 91
2002-07-01 09:21:22 51°14.066 2°41.059 14.4 273 13.5 100390 91
2002-07-01 09:21:26 51°14.067 2°41.057 12.9 277 13.5 100390 91
2002-07-01 09:21:31 51°14.067 2°41.055 13.9 276 13.5 100390 91
2002-07-01 09:21:36 51°14.068 2°41.052 12.6 284 13.5 100390 91
2002-07-01 09:21:42 51°14.069 2°41.05 13.4 290 13.6 100400 91
2002-07-01 09:21:47 51°14.07 2°41.048 11.9 277 13.6 100400 91
2002-07-01 09:21:51 51°14.071 2°41.046 12.8 281 13.6 100380 91
2002-07-01 09:21:57 51°14.072 2°41.043 12.8 287 13.6 100380 91
2002-07-01 09:22:01 51°14.073 2°41.041 13.4 288 13.6 100410 91
2002-07-01 09:22:06 51°14.074 2°41.04 14 291 13.6 100410 91
2002-07-01 09:22:11 51°14.075 2°41.038 12.2 291 13.6 100400 92
2002-07-01 09:22:17 51°14.076 2°41.036 12.7 290 13.6 100400 92
2002-07-01 09:22:22 51°14.077 2°41.034 12.7 294 13.6 100410 92
2002-07-01 09:22:27 51°14.078 2°41.032 12.9 289 13.6 100410 92
2002-07-01 09:22:31 51°14.079 2°41.03 13.6 291 13.6 100400 92
2002-07-01 09:22:37 51°14.08 2°41.028 13.7 293 13.6 100400 92
2002-07-01 09:22:41 51°14.081 2°41.027 14.2 295 13.6 100410 92
2002-07-01 09:22:46 51°14.082 2°41.025 13.2 290 13.6 100410 92
2002-07-01 09:22:51 51°14.083 2°41.024 12.3 296 13.6 100400 91
2002-07-01 09:22:56 51°14.085 2°41.023 12.8 297 13.6 100400 91
2002-07-01 09:23:02 51°14.086 2°41.021 12.5 297 13.6 100420 91
2002-07-01 09:23:07 51°14.087 2°41.019 12.3 294 13.6 100420 91
2002-07-01 09:23:11 51°14.088 2°41.018 13.6 296 13.5 100410 91
2002-07-01 09:23:15 51°14.089 2°41.017 12.1 301 13.5 100410 91
2002-07-01 09:23:22 51°14.091 2°41.016 12.9 299 13.5 100400 91
2002-07-01 09:23:26 51°14.092 2°41.015 11.1 295 13.5 100400 91
2002-07-01 09:23:31 51°14.093 2°41.013 12.9 300 13.5 100410 91
2002-07-01 09:23:37 51°14.095 2°41.012 11.1 302 13.5 100410 91
2002-07-01 09:23:42 51°14.096 2°41.011 13.6 296 13.6 100420 91
2002-07-01 09:23:46 51°14.097 2°41.01 14.2 299 13.6 100420 91
2002-07-01 09:23:51 51°14.098 2°41.009 12.9 303 13.6 100420 92
2002-07-01 09:23:56 51°14.1 2°41.009 8.6 305 13.6 100420 92
2002-07-01 09:24:02 51°14.101 2°41.008 9.7 304 13.6 100410 92
2002-07-01 09:24:07 51°14.102 2°41.008 5.5 318 13.6 100410 92
2002-07-01 09:24:11 51°14.103 2°41.008 8.4 307 13.6 100410 92
2002-07-01 09:24:17 51°14.105 2°41.008 6.9 325 13.6 100410 92
2002-07-01 09:24:22 51°14.106 2°41.008 4.4 312 13.6 100420 92
2002-07-01 09:24:26 51°14.106 2°41.008 2.2 312 13.6 100420 92
2002-07-01 09:24:31 51°14.107 2°41.007 2.7 339 13.6 100410 92
2002-07-01 09:24:36 51°14.109 2°41.007 3.1 341 13.6 100410 92
2002-07-01 09:24:41 51°14.11 2°41.007 2.2 326 13.6 100420 92
2002-07-01 09:24:47 51°14.111 2°41.006 3 328 13.6 100420 92
2002-07-01 09:24:51 51°14.112 2°41.005 3.2 326 13.6 100420 92
2002-07-01 09:24:56 51°14.114 2°41.005 2.1 307 13.6 100420 92
2002-07-01 09:25:02 51°14.115 2°41.004 3.1 317 13.6 100430 91
2002-07-01 09:25:06 51°14.116 2°41.003 2.7 338 13.6 100430 91
2002-07-01 09:25:11 51°14.117 2°41.003 3.9 345 13.6 100420 92
2002-07-01 09:25:17 51°14.118 2°41.002 2.6 325 13.6 100420 92
2002-07-01 09:25:21 51°14.119 2°41.002 3 314 13.6 100420 92
2002-07-01 09:25:26 51°14.12 2°41.001 6.1 312 13.6 100420 92
2002-07-01 09:25:31 51°14.121 2°41.001 4.5 322 13.6 100430 92
2002-07-01 09:25:37 51°14.122 2°41 4.3 317 13.6 100430 92
2002-07-01 09:25:41 51°14.123 2°41 3.2 326 13.6 100430 91
2002-07-01 09:25:47 51°14.125 2°40.999 3.1 334 13.6 100430 91
2002-07-01 09:25:51 51°14.126 2°40.999 4.8 330 13.6 100420 91
2002-07-01 09:25:57 51°14.127 2°40.998 3.1 318 13.6 100420 91
2002-07-01 09:26:01 51°14.128 2°40.998 2 311 13.6 100420 91
2002-07-01 09:26:06 51°14.129 2°40.998 2.9 326 13.6 100420 91
2002-07-01 09:26:11 51°14.13 2°40.997 3.2 321 13.6 100430 91
2002-07-01 09:26:16 51°14.131 2°40.997 3.3 323 13.6 100430 91
2002-07-01 09:26:22 51°14.132 2°40.997 2.7 347 13.6 100420 91
2002-07-01 09:26:27 51°14.133 2°40.998 1.1 336 13.6 100420 91
2002-07-01 09:26:31 51°14.133 2°40.999 0.5 310 13.6 100420 91
2002-07-01 09:26:37 51°14.134 2°41 2.6 331 13.6 100420 91
2002-07-01 09:26:41 51°14.134 2°41.001 1.7 337 13.6 100430 91
2002-07-01 09:26:46 51°14.134 2°41.002 5.1 349 13.6 100430 91
2002-07-01 09:26:51 51°14.134 2°41.004 8.3 360 13.6 100430 91
2002-07-01 09:26:57 51°14.135 2°41.006 2.8 358 13.6 100430 91
2002-07-01 09:27:02 51°14.135 2°41.007 3.3 341 13.6 100420 91
2002-07-01 09:27:06 51°14.134 2°41.007 6.6 341 13.6 100420 91
2002-07-01 09:27:11 51°14.135 2°41.009 8.4 345 13.6 100430 91
2002-07-01 09:27:16 51°14.135 2°41.01 10.5 354 13.6 100430 91
2002-07-01 09:27:22 51°14.135 2°41.012 9.9 354 13.6 100430 91
2002-07-01 09:27:27 51°14.134 2°41.013 9.8 12 13.6 100430 91
2002-07-01 09:27:31 51°14.134 2°41.014 10 2 13.6 100420 91
2002-07-01 09:27:37 51°14.134 2°41.015 9.8 13 13.6 100420 91